World > North America > United States > Utah > Partoun

Hourly Partoun, UT Regional Weather

Feedback E-mail the Weather

Quick WX

Partoun, UT Weather Maps

°F °C°F °C
Partoun Weather Map
UTC Time: 8/8/2022, 10:43
Your Time:

Partoun, UT Regional Weather

Expires:202208081100;;669743
ASUS45 KSLC 081010
RWRUT 

UTAH REGIONAL WEATHER ROUNDUP
NATIONAL WEATHER SERVICE SALT LAKE CITY UT
400 AM MDT MON AUG 08 2022


UTZ101>105-107>111-081100-

NORTHERN UTAH
  
CITY           SKY/WX    TMP DP  RH WIND       PRES   REMARKS
BRIGHAM CITY   CLEAR     62  53  73 MISG      30.21R                  
HILL AFB       CLEAR     64  46  53 NE8       30.20S                  
LOGAN          CLEAR     56  54  93 CALM      30.22R                  
OGDEN          CLEAR     66  46  48 S9        30.19S                  
SALT LAKE CITY CLEAR     68  49  50 S7        30.18S                  
TOOELE VALLEY  CLEAR     55  48  76 SE6       30.20S                  
WENDOVER       CLEAR     67  58  72 W3        30.19S                  
HEBER CITY       N/A     50  43  76 CALM      30.30R                  
WEST JORDAN    CLEAR     62  52  70 CALM      30.22S                  

$$


SKY/WX - Weather  TMP - Temperature  DP - Dew Point  RH - Humidity
WIND - Wind Direction/Speed PRES - Barometric Pressure VSB - Visibility
WCI - Wind Chill Index E13G22 Wind - East Wind 13 mph/Gusts of 22 mph

Trending Headlines

Partoun Radar Loop



Partoun Quick Facts


National Two Day Weather Forecast


E-mail the Partoun Weather Forecast

Voice your opinion or tell us about page issues...